Weather History for Bellaire, MI

Change the Weather History Date:

Thursday, January 2, 2014

  Actual Average (KTVC) Record (KTVC)
Temperature  
Mean Temperature 0 °F 23 °F  
Max Temperature 11 °F 29 °F 55 °F (1897)
Min Temperature -12 °F 17 °F -8 °F (1982)
Degree Days  
Heating Degree Days 66 42  
Month to date heating degree days 84  
Since 1 July heating degree days 2892  
Moisture  
Dew Point -4 °F    
Average Humidity 73    
Maximum Humidity 86    
Minimum Humidity 56    
Precipitation  
Precipitation 0.00 in 0.10 in 0.35 in (1941)
Month to date precipitation 0.19  
Year to date precipitation 0.19  
Sea Level Pressure  
Sea Level Pressure 30.31 in    
Wind  
Wind Speed 2 mph (NE)    
Max Wind Speed 7 mph    
Max Gust Speed 10 mph    
Visibility 10 miles    
Events Snow    
T = Trace of Precipitation, MM = Missing Value Source: NWS Daily Summary

Daily Weather History Graph

Daily Weather History Graph

Search for Another Location

Airport:

Trip Planner

Search our weather history database for the weather conditions in past years. The results will help you decide how hot, cold, wet, or windy it might be!

Date:

Astronomy

Jan. 02, 2014 Rise Set
Actual Time 8:19 AM EST 5:10 PM EST
Civil Twilight 7:45 AM EST 5:44 PM EST
Nautical Twilight 7:08 AM EST 6:21 PM EST
Astronomical Twilight 6:32 AM EST 6:57 PM EST
Moon 8:54 AM EST (1/2) 7:13 PM EST (1/2)
Length of Visible Light 9h 59m
Length of Day
8h 51m
New Moon, 2% of the Moon is Illuminated
Jan 2
New Moon
Jan 7
First Quarter
Jan 15
Full
Jan 24
Last Quarter
Jan 30
New

Hourly Weather History & Observations

Time (EST) Temp. Windchill Dew Point Humidity Pressure Visibility Wind Dir Wind Speed Gust Speed Precip Events Conditions
12:14 AM 5.2 °F - -0.4 °F 78% 30.37 in 10.0 mi Calm Calm - N/A   Overcast
12:33 AM 5.5 °F -3.4 °F -0.4 °F 77% 30.36 in 10.0 mi NNE 4.6 mph - N/A   Overcast
12:53 AM 5.5 °F -1.5 °F -0.6 °F 76% 30.36 in 10.0 mi NNE 3.5 mph - N/A   Overcast
1:14 AM 5.4 °F - -0.9 °F 75% 30.35 in 10.0 mi Calm Calm - N/A   Overcast
1:33 AM 5.2 °F - -0.9 °F 76% 30.35 in 10.0 mi Calm Calm - N/A   Overcast
1:54 AM 5.0 °F - -0.6 °F 78% 30.35 in 10.0 mi Calm Calm - N/A   Overcast
2:14 AM 5.4 °F - -0.9 °F 75% 30.34 in 10.0 mi Calm Calm - N/A   Overcast
2:33 AM 5.5 °F - -0.8 °F 75% 30.34 in 10.0 mi Calm Calm - N/A   Overcast
2:54 AM 5.5 °F - -0.9 °F 75% 30.33 in 10.0 mi Calm Calm - N/A   Overcast
3:13 AM 5.5 °F - -1.1 °F 74% 30.34 in 10.0 mi Calm Calm - N/A   Overcast
3:34 AM 5.0 °F - -0.9 °F 76% 30.33 in 10.0 mi Calm Calm - N/A   Overcast
3:54 AM 5.0 °F - -0.9 °F 76% 30.33 in 10.0 mi Calm Calm - N/A   Overcast
4:13 AM 5.2 °F - -0.8 °F 76% 30.32 in 10.0 mi Calm Calm - N/A   Overcast
4:34 AM 5.4 °F - -0.6 °F 76% 30.32 in 10.0 mi Calm Calm - N/A   Overcast
4:54 AM 5.4 °F -1.7 °F -0.6 °F 76% 30.31 in 10.0 mi North 3.5 mph - N/A   Overcast
5:13 AM 5.5 °F - -0.4 °F 77% 30.31 in 10.0 mi Calm Calm - N/A   Overcast
5:34 AM 5.5 °F - -0.4 °F 77% 30.30 in 10.0 mi Calm Calm - N/A   Overcast
5:54 AM 5.0 °F - -0.4 °F 78% 30.30 in 10.0 mi Calm Calm - N/A   Overcast
6:13 AM 5.2 °F -1.9 °F -0.4 °F 78% 30.30 in 10.0 mi NNE 3.5 mph - N/A   Overcast
6:34 AM 5.5 °F -1.5 °F -0.0 °F 78% 30.31 in 10.0 mi NE 3.5 mph - N/A   Overcast
6:54 AM 5.4 °F -1.7 °F -0.2 °F 78% 30.31 in 10.0 mi NE 3.5 mph - N/A   Overcast
7:13 AM 5.4 °F - -0.2 °F 78% 30.31 in 10.0 mi Calm Calm - N/A   Overcast
7:34 AM 5.0 °F -2.1 °F -0.4 °F 78% 30.31 in 10.0 mi NNE 3.5 mph - N/A   Overcast
7:54 AM 4.8 °F - -0.4 °F 79% 30.31 in 10.0 mi Calm Calm - N/A   Overcast
8:13 AM 5.0 °F - -0.4 °F 78% 30.31 in 10.0 mi Calm Calm - N/A   Overcast
8:34 AM 4.8 °F - -0.4 °F 79% 30.31 in 10.0 mi Calm Calm - N/A   Overcast
8:54 AM 4.5 °F - -0.8 °F 79% 30.30 in 10.0 mi Calm Calm - N/A   Overcast
9:13 AM 5.5 °F -1.5 °F -0.4 °F 77% 30.30 in 10.0 mi East 3.5 mph - N/A   Overcast
9:34 AM 5.9 °F -3.0 °F -0.9 °F 73% 30.31 in 10.0 mi ENE 4.6 mph - N/A   Mostly Cloudy
9:54 AM 6.4 °F - -0.9 °F 72% 30.31 in 10.0 mi Calm Calm - N/A   Mostly Cloudy
10:13 AM 6.8 °F - -1.3 °F 69% 30.31 in 10.0 mi Calm Calm - N/A   Overcast
10:34 AM 7.5 °F -1.1 °F -1.3 °F 67% 30.31 in 10.0 mi ENE 4.6 mph - N/A   Mostly Cloudy
10:54 AM 8.1 °F -0.5 °F -1.3 °F 66% 30.31 in 10.0 mi ENE 4.6 mph - N/A   Mostly Cloudy
11:13 AM 8.4 °F -1.6 °F -1.3 °F 65% 30.31 in 10.0 mi NE 5.8 mph - N/A   Overcast
11:34 AM 8.6 °F 0.1 °F -1.3 °F 64% 30.30 in 10.0 mi ENE 4.6 mph - N/A   Scattered Clouds
11:53 AM 9.0 °F -0.9 °F -1.3 °F 63% 30.29 in 10.0 mi ENE 5.8 mph - N/A   Clear
12:14 PM 9.0 °F -2.2 °F -0.9 °F 64% 30.28 in 10.0 mi ENE 6.9 mph - N/A   Scattered Clouds
12:34 PM 9.1 °F -1.9 °F -0.8 °F 64% 30.28 in 10.0 mi East 6.9 mph - N/A   Overcast
12:53 PM 9.1 °F -0.7 °F -0.8 °F 64% 30.28 in 10.0 mi ENE 5.8 mph - N/A   Overcast
1:13 PM 9.5 °F 1.2 °F -0.9 °F 63% 30.27 in 10.0 mi ENE 4.6 mph - N/A   Mostly Cloudy
1:34 PM 9.7 °F 1.4 °F -0.9 °F 62% 30.26 in 10.0 mi East 4.6 mph - N/A   Scattered Clouds
1:53 PM 10.0 °F 0.4 °F -0.8 °F 62% 30.26 in 10.0 mi NE 5.8 mph - N/A   Scattered Clouds
2:13 PM 11.1 °F 1.7 °F -0.9 °F 58% 30.26 in 10.0 mi NNE 5.8 mph - N/A   Scattered Clouds
2:34 PM 10.6 °F 2.5 °F -1.7 °F 58% 30.26 in 10.0 mi NNE 4.6 mph - N/A   Mostly Cloudy
2:53 PM 10.2 °F 2.0 °F -1.5 °F 59% 30.26 in 10.0 mi NNE 4.6 mph - N/A   Scattered Clouds
3:13 PM 10.4 °F -0.4 °F -2.0 °F 57% 30.26 in 10.0 mi North 6.9 mph - N/A   Clear
3:34 PM 10.4 °F -0.4 °F -2.2 °F 57% 30.27 in 10.0 mi North 6.9 mph - N/A   Scattered Clouds
3:53 PM 9.9 °F 0.2 °F -3.1 °F 56% 30.27 in 10.0 mi North 5.8 mph 10.4 mph N/A   Clear
4:14 PM 9.5 °F 1.2 °F -3.3 °F 56% 30.28 in 10.0 mi North 4.6 mph - N/A   Clear
4:34 PM 8.4 °F -0.1 °F -3.6 °F 58% 30.28 in 10.0 mi North 4.6 mph - N/A   Clear
4:53 PM 8.1 °F -2.0 °F -4.0 °F 58% 30.29 in 10.0 mi North 5.8 mph - N/A   Clear
5:14 PM 7.2 °F 0.3 °F -3.8 °F 61% 30.29 in 10.0 mi North 3.5 mph - N/A   Clear
5:34 PM 6.1 °F -0.9 °F -3.8 °F 64% 30.30 in 10.0 mi North 3.5 mph - N/A   Clear
5:53 PM 5.0 °F -2.1 °F -3.5 °F 68% 30.31 in 10.0 mi North 3.5 mph - N/A   Clear
6:14 PM 3.4 °F - -3.8 °F 72% 30.31 in 10.0 mi Calm Calm - N/A   Clear
6:34 PM -1.1 °F - -5.4 °F 82% 30.32 in 10.0 mi Calm Calm - N/A   Clear
6:53 PM -0.8 °F - -4.9 °F 83% 30.33 in 10.0 mi Calm Calm - N/A   Clear
7:14 PM -3.1 °F - -6.7 °F 85% 30.33 in 10.0 mi Calm Calm - N/A   Scattered Clouds
7:34 PM -2.7 °F - -6.0 °F 86% 30.33 in 10.0 mi Calm Calm - N/A   Mostly Cloudy
7:53 PM -5.1 °F - -8.5 °F 85% 30.33 in 10.0 mi Calm Calm - N/A   Clear
8:14 PM -5.8 °F - -9.6 °F 84% 30.33 in 10.0 mi Calm Calm - N/A   Scattered Clouds
8:33 PM -7.4 °F - -11.2 °F 84% 30.33 in 10.0 mi Calm Calm - N/A   Clear
8:54 PM -8.3 °F - -12.5 °F 82% 30.33 in 10.0 mi Calm Calm - N/A   Clear
9:14 PM -8.5 °F - -12.5 °F 83% 30.32 in 10.0 mi Calm Calm - N/A   Clear
9:33 PM -9.6 °F - -13.9 °F 81% 30.32 in 10.0 mi Calm Calm - N/A   Clear
9:54 PM -11.0 °F - -15.5 °F 80% 30.32 in 10.0 mi Calm Calm - N/A   Clear
10:14 PM -10.5 °F - -15.0 °F 80% 30.32 in 10.0 mi Calm Calm - N/A   Clear
10:33 PM -12.5 °F - -17.1 °F 80% 30.32 in 10.0 mi Calm Calm - N/A   Clear
10:54 PM -12.1 °F - -16.6 °F 80% 30.33 in 10.0 mi Calm Calm - N/A   Mostly Cloudy
11:14 PM -11.2 °F - -15.7 °F 80% 30.33 in 7.0 mi Calm Calm - N/A   Overcast
11:33 PM -10.1 °F - -15.0 °F 79% 30.32 in 10.0 mi Calm Calm - N/A   Overcast
11:53 PM -9.4 °F - -14.4 °F 78% 30.31 in 7.0 mi Calm Calm - N/A Snow Light Snow